Regional Weather Roundup
Issued by NWS

Home | Current Version | Previous Version | Graphics & Text | Print | Product List | Glossary On
Versions: 1 2 3 4 5 6 7 8 9 10 11 12 13 14 15 16 17 18 19 20 21 22 23 24 25 26 27 28 29 30 31 32 33 34 35 36 37 38 39 40 41 42 43 44 45 46 47 48 49 50
000
ASUS43 KFSD 252202
RWRSD

WEATHER ROUNDUP FOR SOUTH DAKOTA
NATIONAL WEATHER SERVICE SIOUX FALLS SD
500 PM CDT WED MAY 25 2016

NOTE: "FAIR" INDICATES FEW OR NO CLOUDS BELOW 12,000 FEET WITH NO
SIGNIFICANT WEATHER AND/OR OBSTRUCTIONS TO VISIBILITY.


SDZ001>005-009-010-012>017-252300-
NORTHWEST AND NORTH CENTRAL SOUTH DAKOTA

CITY           SKY/WX    TMP DP  RH WIND       PRES   REMARKS
BUFFALO          N/A     64  43  46 NW16G24   29.79F
FAITH            N/A     65  44  46 NW20G29   29.82S
MOBRIDGE       MOSUNNY   74  54  49 CALM      29.72F
$$

SDZ012>016-024>037-041>051-057-063-072>074-252300-
SOUTHWEST AND SOUTH CENTRAL SOUTH DAKOTA

CITY           SKY/WX    TMP DP  RH WIND       PRES   REMARKS
RAPID CTY ARPT SUNNY     66  48  52 N14       29.87S
PIERRE         CLOUDY    70  55  59 NW10      29.76S THUNDER
CUSTER         CLOUDY    59  37  44 W12G25    29.94R
ELLSWORTH AFB  SUNNY     66  46  47 N14       29.87S
PHILIP         CLOUDY    69  56  62 NW15      29.83S
PINE RIDGE     MOSUNNY   69  43  38 W10G18    29.87S
WINNER         MOCLDY    77  56  48 NW9       29.78
$$

SDZ004>011-016>023-039-040-252300-
NORTHEAST SOUTH DAKOTA

CITY           SKY/WX    TMP DP  RH WIND       PRES   REMARKS
ABERDEEN       PTSUNNY   77  59  53 VRB3      29.73F
WATERTOWN      MOSUNNY   76  58  53 SW14      29.77F
BROOKINGS      MOSUNNY   74  60  61 SW9       29.79F
SISSETON         N/A     77  57  50 W16G22    29.72F
$$

SDZ017-020-022-023-036>040-048>070-252300-
SOUTHEAST SOUTH DAKOTA

CITY           SKY/WX    TMP DP  RH WIND       PRES   REMARKS
SIOUX FALLS    MOSUNNY   78  60  53 W8        29.79F
HURON          MOSUNNY   77  60  55 MISG      29.76F
MITCHELL       SUNNY     76  60  57 SW7       29.78F
YANKTON        MOSUNNY   81  59  47 W3        29.77F
$$

ABBREVIATIONS USED IN REMARKS
   TC - TEMPERATURE IN CELSIUS
  WCI - WIND CHILL INDEX
   HX - HEAT INDEX
  VSB - VISIBILITY




USA.gov is the U.S. government's official web portal to all federal, state and local government web resources and services.